Vancouver, WA

11:41 PM PDT on May 24, 2017 (GMT -0700)
Pearson

Weather History for KVUO - April, 2014

Change the Weather History Date:

Thursday, April 24, 2014

  Actual Average Record
Temperature  
Mean Temperature 54 °F 53 °F  
Max Temperature 59 °F 63 °F 87 °F (1910)
Min Temperature 49 °F 43 °F 29 °F (1986)
Degree Days  
Heating Degree Days 11    
Month to date heating degree days 296  
Since 1 July heating degree days 4278  
Cooling Degree Days 0    
Month to date cooling degree days 0  
Year to date cooling degree days 0  
Growing Degree Days 2 (Base 50)    
Moisture  
Dew Point 45 °F    
Average Humidity 68    
Maximum Humidity 89    
Minimum Humidity 47    
Precipitation  
Precipitation 0.41 in 0.10 in 0.90 in (2003)
Month to date precipitation 2.77 2.48  
Year to date precipitation 16.18 15.58  
Sea Level Pressure  
Sea Level Pressure 29.84 in    
Wind  
Wind Speed 9 mph (South)    
Max Wind Speed 23 mph    
Max Gust Speed 27 mph    
Visibility 9 miles    
Events Rain    
T = Trace of Precipitation, MM = Missing Value Source: NWS Daily Summary

Daily Weather History Graph

Daily Weather History Graph

Search for Another Location

Airport or City:

Trip Planner

Search our weather history database for the weather conditions in past years. The results will help you decide how hot, cold, wet, or windy it might be!

Date:

Astronomy

Apr. 24, 2014 Rise Set
Actual Time 6:09 AM PDT 8:08 PM PDT
Civil Twilight 5:37 AM PDT 8:41 PM PDT
Nautical Twilight 4:58 AM PDT 9:20 PM PDT
Astronomical Twilight 4:15 AM PDT 10:04 PM PDT
Moon 3:39 AM PDT (4/24) 3:16 PM PDT (4/24)
Length of Visible Light 15h 03m
Length of Day
13h 59m
Waning Crescent, 23% of the Moon is Illuminated
Apr 24
Waning Crescent
Apr 28
New
May 6
First Quarter
May 14
Full
May 21
Last Quarter

Hourly Weather History & Observations

Time (PDT) Temp. Dew Point Humidity Pressure Visibility Wind Dir Wind Speed Gust Speed Precip Events Conditions
12:53 AM 54.0 °F 48.0 °F 80% 29.75 in 10.0 mi SSE 11.5 mph 19.6 mph N/A   Overcast
1:53 AM 54.0 °F 48.0 °F 80% 29.75 in 10.0 mi South 9.2 mph 19.6 mph 0.01 in Rain Light Rain
2:21 AM 54.0 °F 48.0 °F 80% 29.73 in 10.0 mi South 10.4 mph 21.9 mph 0.00 in Rain Light Rain
2:53 AM 53.1 °F 48.0 °F 83% 29.73 in 10.0 mi SSE 10.4 mph - 0.00 in Rain Light Rain
3:06 AM 53.1 °F 48.0 °F 83% 29.73 in 10.0 mi SSE 9.2 mph 19.6 mph 0.00 in Rain Light Rain
3:53 AM 52.0 °F 48.9 °F 89% 29.72 in 10.0 mi SSE 9.2 mph - 0.02 in Rain Light Rain
4:53 AM 53.1 °F 48.0 °F 83% 29.73 in 10.0 mi South 9.2 mph - 0.01 in Rain Light Rain
5:53 AM 53.1 °F 48.9 °F 86% 29.73 in 5.0 mi Variable 5.8 mph - 0.02 in Rain Light Rain
6:21 AM 52.0 °F 48.0 °F 86% 29.75 in 2.5 mi Variable 5.8 mph - 0.12 in Rain Rain
6:53 AM 52.0 °F 48.9 °F 89% 29.75 in 7.0 mi SE 5.8 mph - 0.23 in Rain Light Rain
7:53 AM 52.0 °F 48.0 °F 86% 29.79 in 10.0 mi SSE 4.6 mph - 0.00 in   Overcast
8:19 AM 52.0 °F 48.9 °F 89% 29.80 in 10.0 mi SE 5.8 mph - N/A   Overcast
8:43 AM 52.0 °F 48.9 °F 89% 29.81 in 10.0 mi SE 4.6 mph - N/A   Mostly Cloudy
8:53 AM 53.1 °F 48.9 °F 86% 29.81 in 10.0 mi SE 4.6 mph - N/A   Mostly Cloudy
9:53 AM 55.9 °F 45.0 °F 67% 29.84 in 10.0 mi SSW 8.1 mph - N/A   Mostly Cloudy
10:53 AM 48.9 °F 43.0 °F 80% 29.89 in 3.0 mi West 10.4 mph 27.6 mph 0.05 in Rain Rain
11:53 AM 54.0 °F 45.0 °F 72% 29.90 in 10.0 mi SSW 4.6 mph - 0.01 in   Scattered Clouds
12:53 PM 57.0 °F 42.1 °F 57% 29.90 in 10.0 mi West 8.1 mph - N/A   Mostly Cloudy
1:53 PM 53.1 °F 44.1 °F 71% 29.93 in 4.0 mi WSW 11.5 mph 24.2 mph 0.03 in Rain Rain
2:53 PM 54.0 °F 44.1 °F 69% 29.92 in 10.0 mi SSW 5.8 mph - 0.03 in   Overcast
3:53 PM 57.0 °F 39.9 °F 53% 29.91 in 10.0 mi Variable 5.8 mph - N/A   Mostly Cloudy
4:53 PM 57.0 °F 37.0 °F 47% 29.91 in 10.0 mi West 13.8 mph 19.6 mph N/A   Mostly Cloudy
5:53 PM 55.9 °F 39.0 °F 53% 29.92 in 10.0 mi West 12.7 mph - N/A   Scattered Clouds
6:53 PM 54.0 °F 37.0 °F 53% 29.91 in 10.0 mi West 8.1 mph - N/A   Clear
7:53 PM 51.1 °F 39.0 °F 63% 29.91 in 10.0 mi Calm Calm - N/A   Overcast
8:53 PM 51.1 °F 39.9 °F 66% 29.92 in 10.0 mi Calm Calm - N/A   Mostly Cloudy
9:53 PM 50.0 °F 42.1 °F 74% 29.93 in 10.0 mi Calm Calm - N/A   Overcast
10:53 PM 48.9 °F 41.0 °F 74% 29.93 in 10.0 mi ESE 4.6 mph - N/A   Overcast
11:53 PM 48.0 °F 42.1 °F 80% 29.92 in 10.0 mi ESE 3.5 mph - N/A   Overcast